Time,TemperatureF,DewpointF,PressureIn,WindDirection,WindDirectionDegrees,WindSpeedMPH,WindSpeedGustMPH,Humidity,HourlyPrecipIn,Conditions,Clouds,dailyrainin,SoftwareType,DateUTC
2013-07-22 00:02:00,61.4,51.9,29.84,North,0,0.4,2.7,71,0.00,,,0.00,WUHU216HW,2013-07-22 07:02:00,
2013-07-22 00:07:00,61.4,51.9,29.84,NNW,338,1.1,4.0,71,0.00,,,0.00,WUHU216HW,2013-07-22 07:07:00,
2013-07-22 00:12:00,61.4,51.9,29.84,NNE,23,0.4,4.0,71,0.00,,,0.00,WUHU216HW,2013-07-22 07:12:00,
2013-07-22 00:17:00,61.2,51.9,29.84,NW,315,0.4,2.5,71,0.00,,,0.00,WUHU216HW,2013-07-22 07:17:00,
2013-07-22 00:22:00,61.2,52.2,29.85,NNE,23,3.4,3.4,72,0.00,,,0.00,WUHU216HW,2013-07-22 07:22:00,
2013-07-22 00:27:00,61.2,52.2,29.84,NNW,338,1.1,3.4,72,0.00,,,0.00,WUHU216HW,2013-07-22 07:27:00,
2013-07-22 00:32:00,61.2,51.9,29.85,North,0,2.2,2.2,71,0.00,,,0.00,WUHU216HW,2013-07-22 07:32:00,
2013-07-22 00:37:00,61.0,52.0,29.84,NNE,23,0.2,2.5,72,0.00,,,0.00,WUHU216HW,2013-07-22 07:37:00,
2013-07-22 00:42:00,61.0,52.0,29.84,NNW,338,2.0,2.5,72,0.00,,,0.00,WUHU216HW,2013-07-22 07:42:00,
2013-07-22 00:47:00,61.0,52.0,29.85,North,0,0.7,2.0,72,0.00,,,0.00,WUHU216HW,2013-07-22 07:47:00,
2013-07-22 00:52:00,60.8,52.2,29.84,NE,45,1.3,1.3,73,0.00,,,0.00,WUHU216HW,2013-07-22 07:52:00,
2013-07-22 00:57:00,60.8,52.2,29.84,NNE,23,0.9,1.3,73,0.00,,,0.00,WUHU216HW,2013-07-22 07:57:00,
2013-07-22 01:02:00,60.7,52.0,29.84,NNW,338,0.4,2.0,73,0.00,,,0.00,WUHU216HW,2013-07-22 08:02:00,
2013-07-22 01:07:00,60.7,52.0,29.85,NNW,338,0.9,2.0,73,0.00,,,0.00,WUHU216HW,2013-07-22 08:07:00,
2013-07-22 01:12:00,60.5,52.6,29.85,NNE,23,0.2,1.8,75,0.00,,,0.00,WUHU216HW,2013-07-22 08:12:00,
2013-07-22 01:17:00,60.5,52.2,29.85,NW,315,0.4,1.8,74,0.00,,,0.00,WUHU216HW,2013-07-22 08:17:00,
2013-07-22 01:22:00,60.3,51.7,29.85,NW,315,0.0,1.1,73,0.00,,,0.00,WUHU216HW,2013-07-22 08:22:00,
2013-07-22 01:27:00,60.3,52.0,29.85,North,0,0.0,1.1,74,0.00,,,0.00,WUHU216HW,2013-07-22 08:27:00,
2013-07-22 01:32:00,60.3,52.4,29.85,West,270,1.8,1.8,75,0.00,,,0.00,WUHU216HW,2013-07-22 08:32:00,
2013-07-22 01:37:00,60.3,52.7,29.85,NNW,338,1.3,2.0,76,0.00,,,0.00,WUHU216HW,2013-07-22 08:37:00,
2013-07-22 01:42:00,60.5,52.9,29.85,NW,315,0.0,2.0,76,0.00,,,0.00,WUHU216HW,2013-07-22 08:42:00,
2013-07-22 01:47:00,60.5,52.9,29.85,West,270,3.1,3.1,76,0.00,,,0.00,WUHU216HW,2013-07-22 08:47:00,
2013-07-22 01:52:00,60.7,53.1,29.85,West,270,2.2,3.1,76,0.00,,,0.00,WUHU216HW,2013-07-22 08:52:00,
2013-07-22 01:57:00,60.7,53.1,29.85,North,0,0.4,2.2,76,0.00,,,0.00,WUHU216HW,2013-07-22 08:57:00,
2013-07-22 02:02:00,60.8,53.3,29.85,NW,315,1.8,2.2,76,0.00,,,0.00,WUHU216HW,2013-07-22 09:02:00,
2013-07-22 02:07:00,60.8,53.3,29.85,North,0,0.4,2.2,76,0.00,,,0.00,WUHU216HW,2013-07-22 09:07:00,
2013-07-22 02:12:00,60.8,53.3,29.85,ENE,68,0.2,2.5,76,0.00,,,0.00,WUHU216HW,2013-07-22 09:12:00,
2013-07-22 02:17:00,60.8,53.3,29.85,NNE,23,0.4,2.5,76,0.00,,,0.00,WUHU216HW,2013-07-22 09:17:00,
2013-07-22 02:22:00,60.8,53.3,29.84,North,0,0.9,1.8,76,0.00,,,0.00,WUHU216HW,2013-07-22 09:22:00,
2013-07-22 02:27:00,60.8,53.3,29.84,West,270,0.4,2.0,76,0.00,,,0.00,WUHU216HW,2013-07-22 09:27:00,
2013-07-22 02:32:00,60.7,53.1,29.84,NE,45,0.4,2.0,76,0.00,,,0.00,WUHU216HW,2013-07-22 09:32:00,
2013-07-22 02:37:00,60.5,53.3,29.84,West,270,1.1,3.8,77,0.00,,,0.00,WUHU216HW,2013-07-22 09:37:00,
2013-07-22 02:42:00,60.5,53.3,29.84,NNW,338,0.0,3.8,77,0.00,,,0.00,WUHU216HW,2013-07-22 09:42:00,
2013-07-22 02:47:00,60.3,53.1,29.84,North,0,0.7,1.8,77,0.00,,,0.00,WUHU216HW,2013-07-22 09:47:00,
2013-07-22 02:52:00,60.1,52.9,29.84,West,270,2.5,2.5,77,0.00,,,0.00,WUHU216HW,2013-07-22 09:52:00,
2013-07-22 02:57:00,60.1,52.9,29.84,NNW,338,0.0,2.9,77,0.00,,,0.00,WUHU216HW,2013-07-22 09:57:00,
2013-07-22 03:02:00,59.9,52.7,29.84,NNE,23,0.0,2.9,77,0.00,,,0.00,WUHU216HW,2013-07-22 10:02:00,
2013-07-22 03:07:00,59.9,52.7,29.84,WSW,248,0.4,1.3,77,0.00,,,0.00,WUHU216HW,2013-07-22 10:07:00,
2013-07-22 03:12:00,59.9,53.5,29.84,NW,315,3.1,3.1,79,0.00,,,0.00,WUHU216HW,2013-07-22 10:12:00,
2013-07-22 03:17:00,59.8,53.3,29.84,WSW,248,0.4,3.1,79,0.00,,,0.00,WUHU216HW,2013-07-22 10:17:00,
2013-07-22 03:22:00,59.8,53.3,29.85,WNW,293,0.4,2.2,79,0.00,,,0.00,WUHU216HW,2013-07-22 10:22:00,
2013-07-22 03:27:00,59.6,53.1,29.84,West,270,2.7,2.7,79,0.00,,,0.00,WUHU216HW,2013-07-22 10:27:00,
2013-07-22 03:32:00,59.4,52.9,29.84,WNW,293,0.9,2.7,79,0.00,,,0.00,WUHU216HW,2013-07-22 10:32:00,
2013-07-22 03:37:00,59.2,52.7,29.84,North,0,0.2,2.5,79,0.00,,,0.00,WUHU216HW,2013-07-22 10:37:00,
2013-07-22 03:42:00,59.0,52.6,29.85,West,270,2.5,2.5,79,0.00,,,0.00,WUHU216HW,2013-07-22 10:42:00,
2013-07-22 03:47:00,58.9,52.4,29.85,South,180,0.0,2.5,79,0.00,,,0.00,WUHU216HW,2013-07-22 10:47:00,
2013-07-22 03:52:00,58.9,53.1,29.85,West,270,3.4,3.6,81,0.00,,,0.00,WUHU216HW,2013-07-22 10:52:00,
2013-07-22 03:57:00,58.7,53.2,29.85,NW,315,2.0,4.0,82,0.00,,,0.00,WUHU216HW,2013-07-22 10:57:00,
2013-07-22 04:02:00,58.3,52.8,29.85,NNE,23,0.4,5.4,82,0.00,,,0.00,WUHU216HW,2013-07-22 11:02:00,
2013-07-22 04:07:00,58.0,52.5,29.85,WNW,293,0.4,5.4,82,0.00,,,0.00,WUHU216HW,2013-07-22 11:07:00,
2013-07-22 04:12:00,58.0,52.8,29.85,NW,315,2.9,3.4,83,0.00,,,0.00,WUHU216HW,2013-07-22 11:12:00,
2013-07-22 04:17:00,57.8,52.7,29.85,NW,315,0.4,4.9,83,0.00,,,0.00,WUHU216HW,2013-07-22 11:17:00,
2013-07-22 04:22:00,57.6,52.5,29.85,West,270,3.6,4.9,83,0.00,,,0.00,WUHU216HW,2013-07-22 11:22:00,
2013-07-22 04:27:00,57.4,52.3,29.86,WNW,293,3.8,3.8,83,0.00,,,0.00,WUHU216HW,2013-07-22 11:27:00,
2013-07-22 04:32:00,57.2,52.4,29.86,NW,315,2.5,3.8,84,0.00,,,0.00,WUHU216HW,2013-07-22 11:32:00,
2013-07-22 04:37:00,57.2,52.4,29.86,North,0,0.9,2.5,84,0.00,,,0.00,WUHU216HW,2013-07-22 11:37:00,
2013-07-22 04:42:00,56.9,52.0,29.86,WNW,293,1.1,1.1,84,0.00,,,0.00,WUHU216HW,2013-07-22 11:42:00,
2013-07-22 04:47:00,56.9,52.0,29.86,NW,315,0.4,2.5,84,0.00,,,0.00,WUHU216HW,2013-07-22 11:47:00,
2013-07-22 04:52:00,56.9,52.4,29.86,NE,45,0.4,2.5,85,0.00,,,0.00,WUHU216HW,2013-07-22 11:52:00,
2013-07-22 04:57:00,56.7,52.2,29.86,North,0,0.4,1.1,85,0.00,,,0.00,WUHU216HW,2013-07-22 11:57:00,
2013-07-22 05:02:00,56.7,51.8,29.86,ESE,113,0.7,1.1,84,0.00,,,0.00,WUHU216HW,2013-07-22 12:02:00,
2013-07-22 05:07:00,56.7,51.8,29.86,NNW,338,0.9,1.1,84,0.00,,,0.00,WUHU216HW,2013-07-22 12:07:00,
2013-07-22 05:12:00,56.7,52.2,29.87,NW,315,0.9,1.8,85,0.00,,,0.00,WUHU216HW,2013-07-22 12:12:00,
2013-07-22 05:17:00,56.5,52.0,29.87,ESE,113,0.4,1.8,85,0.00,,,0.00,WUHU216HW,2013-07-22 12:17:00,
2013-07-22 05:22:00,56.5,52.0,29.87,NW,315,0.4,3.8,85,0.00,,,0.00,WUHU216HW,2013-07-22 12:22:00,
2013-07-22 05:27:00,56.5,52.0,29.87,NNE,23,0.4,3.8,85,0.00,,,0.00,WUHU216HW,2013-07-22 12:27:00,
2013-07-22 05:32:00,56.5,52.0,29.87,West,270,0.2,0.4,85,0.00,,,0.00,WUHU216HW,2013-07-22 12:32:00,
2013-07-22 05:37:00,56.5,52.0,29.88,NE,45,1.1,1.3,85,0.00,,,0.00,WUHU216HW,2013-07-22 12:37:00,
2013-07-22 05:42:00,56.5,52.0,29.88,North,0,1.1,1.3,85,0.00,,,0.00,WUHU216HW,2013-07-22 12:42:00,
2013-07-22 05:47:00,56.5,52.0,29.88,North,0,0.2,1.1,85,0.00,,,0.00,WUHU216HW,2013-07-22 12:47:00,
2013-07-22 05:52:00,56.5,52.0,29.88,North,0,0.4,2.0,85,0.00,,,0.00,WUHU216HW,2013-07-22 12:52:00,
2013-07-22 05:57:00,56.5,52.0,29.89,NNE,23,0.7,2.0,85,0.00,,,0.00,WUHU216HW,2013-07-22 12:57:00,
2013-07-22 06:02:00,56.5,52.0,29.89,North,0,1.1,1.3,85,0.00,,,0.00,WUHU216HW,2013-07-22 13:02:00,
2013-07-22 06:07:00,56.5,52.0,29.89,North,0,0.4,1.3,85,0.00,,,0.00,WUHU216HW,2013-07-22 13:07:00,
2013-07-22 06:12:00,56.5,52.0,29.89,North,0,0.0,1.1,85,0.00,,,0.00,WUHU216HW,2013-07-22 13:12:00,
2013-07-22 06:17:00,56.5,52.0,29.89,NW,315,0.4,0.7,85,0.00,,,0.00,WUHU216HW,2013-07-22 13:17:00,
2013-07-22 06:22:00,56.5,52.4,29.89,NNE,23,1.8,1.8,86,0.00,,,0.00,WUHU216HW,2013-07-22 13:22:00,
2013-07-22 06:27:00,56.5,52.4,29.89,South,180,0.4,2.9,86,0.00,,,0.00,WUHU216HW,2013-07-22 13:27:00,
2013-07-22 06:32:00,56.5,52.4,29.89,NNE,23,0.2,2.9,86,0.00,,,0.00,WUHU216HW,2013-07-22 13:32:00,
2013-07-22 06:37:00,56.7,52.6,29.90,ENE,68,0.2,1.1,86,0.00,,,0.00,WUHU216HW,2013-07-22 13:37:00,
2013-07-22 06:42:00,56.7,52.6,29.90,NE,45,0.7,1.1,86,0.00,,,0.00,WUHU216HW,2013-07-22 13:42:00,
2013-07-22 06:47:00,56.9,52.8,29.90,NE,45,0.4,1.1,86,0.00,,,0.00,WUHU216HW,2013-07-22 13:47:00,
2013-07-22 06:52:00,57.1,52.9,29.90,NNE,23,0.9,1.1,86,0.00,,,0.00,WUHU216HW,2013-07-22 13:52:00,
2013-07-22 06:57:00,57.2,53.1,29.90,NE,45,0.4,1.8,86,0.00,,,0.00,WUHU216HW,2013-07-22 13:57:00,
2013-07-22 07:02:00,57.4,53.6,29.90,NW,315,0.2,1.8,87,0.00,,,0.00,WUHU216HW,2013-07-22 14:02:00,
2013-07-22 07:07:00,57.6,53.7,29.90,North,0,0.0,2.7,87,0.00,,,0.00,WUHU216HW,2013-07-22 14:07:00,
2013-07-22 07:12:00,58.0,54.1,29.90,NNE,23,0.2,2.7,87,0.00,,,0.00,WUHU216HW,2013-07-22 14:12:00,
2013-07-22 07:17:00,58.3,54.5,29.90,North,0,1.1,2.0,87,0.00,,,0.00,WUHU216HW,2013-07-22 14:17:00,
2013-07-22 07:22:00,58.9,55.0,29.90,NW,315,0.4,2.0,87,0.00,,,0.00,WUHU216HW,2013-07-22 14:22:00,
2013-07-22 07:27:00,59.0,54.9,29.90,North,0,0.7,1.1,86,0.00,,,0.00,WUHU216HW,2013-07-22 14:27:00,
2013-07-22 07:32:00,59.4,54.9,29.89,WNW,293,3.1,3.1,85,0.00,,,0.00,WUHU216HW,2013-07-22 14:32:00,
2013-07-22 07:37:00,60.1,55.6,29.89,NW,315,1.1,3.6,85,0.00,,,0.00,WUHU216HW,2013-07-22 14:37:00,
2013-07-22 07:42:00,60.3,55.4,29.90,NW,315,1.1,4.0,84,0.00,,,0.00,WUHU216HW,2013-07-22 14:42:00,
2013-07-22 07:47:00,60.8,55.7,29.90,WNW,293,1.3,4.0,83,0.00,,,0.00,WUHU216HW,2013-07-22 14:47:00,
2013-07-22 07:52:00,61.0,55.9,29.90,WNW,293,1.6,2.0,83,0.00,,,0.00,WUHU216HW,2013-07-22 14:52:00,
2013-07-22 07:57:00,61.6,56.3,29.90,NNW,338,1.8,2.0,83,0.00,,,0.00,WUHU216HW,2013-07-22 14:57:00,
2013-07-22 08:02:00,62.1,56.2,29.90,North,0,0.2,1.8,81,0.00,,,0.00,WUHU216HW,2013-07-22 15:02:00,
2013-07-22 08:07:00,62.8,56.5,29.90,South,180,0.0,1.8,80,0.00,,,0.00,WUHU216HW,2013-07-22 15:07:00,
2013-07-22 08:12:00,63.4,56.7,29.90,NNE,23,0.9,2.5,79,0.00,,,0.00,WUHU216HW,2013-07-22 15:12:00,
2013-07-22 08:17:00,64.1,57.1,29.90,East,90,0.0,2.5,78,0.00,,,0.00,WUHU216HW,2013-07-22 15:17:00,
2013-07-22 08:22:00,64.8,57.8,29.90,WNW,293,1.1,2.0,78,0.00,,,0.00,WUHU216HW,2013-07-22 15:22:00,
2013-07-22 08:27:00,65.3,57.2,29.90,West,270,1.1,2.5,75,0.00,,,0.00,WUHU216HW,2013-07-22 15:27:00,
2013-07-22 08:32:00,66.2,57.7,29.90,SW,225,1.3,3.8,74,0.00,,,0.00,WUHU216HW,2013-07-22 15:32:00,
2013-07-22 08:37:00,66.8,57.9,29.90,West,270,1.8,3.8,73,0.00,,,0.00,WUHU216HW,2013-07-22 15:37:00,
2013-07-22 08:42:00,67.3,57.6,29.90,South,180,2.5,3.6,71,0.00,,,0.00,WUHU216HW,2013-07-22 15:42:00,
2013-07-22 08:47:00,67.7,57.6,29.90,West,270,1.1,2.5,70,0.00,,,0.00,WUHU216HW,2013-07-22 15:47:00,
2013-07-22 08:52:00,68.0,58.0,29.90,SW,225,0.4,2.2,70,0.00,,,0.00,WUHU216HW,2013-07-22 15:52:00,
2013-07-22 08:57:00,68.9,58.8,29.90,SE,135,0.2,1.3,70,0.00,,,0.00,WUHU216HW,2013-07-22 15:57:00,
2013-07-22 09:02:00,69.7,58.6,29.90,WNW,293,0.9,1.8,68,0.00,,,0.00,WUHU216HW,2013-07-22 16:02:00,
2013-07-22 09:07:00,69.8,58.3,29.90,NNE,23,1.3,2.2,67,0.00,,,0.00,WUHU216HW,2013-07-22 16:07:00,
2013-07-22 09:12:00,70.2,58.2,29.91,WNW,293,0.9,3.1,66,0.00,,,0.00,WUHU216HW,2013-07-22 16:12:00,
2013-07-22 09:17:00,70.6,58.2,29.91,SSW,203,1.3,3.1,65,0.00,,,0.00,WUHU216HW,2013-07-22 16:17:00,
2013-07-22 09:22:00,71.3,58.9,29.90,WNW,293,1.1,1.6,65,0.00,,,0.00,WUHU216HW,2013-07-22 16:22:00,
2013-07-22 09:27:00,71.6,59.7,29.90,NNW,338,0.9,1.8,66,0.00,,,0.00,WUHU216HW,2013-07-22 16:27:00,
2013-07-22 09:32:00,72.4,60.3,29.90,SW,225,1.3,1.8,66,0.00,,,0.00,WUHU216HW,2013-07-22 16:32:00,
2013-07-22 09:37:00,72.9,59.5,29.90,SW,225,0.9,1.8,63,0.00,,,0.00,WUHU216HW,2013-07-22 16:37:00,
2013-07-22 09:42:00,73.4,60.5,29.90,NNE,23,1.1,1.8,64,0.00,,,0.00,WUHU216HW,2013-07-22 16:42:00,
2013-07-22 09:47:00,74.0,60.1,29.90,East,90,2.5,2.5,62,0.00,,,0.00,WUHU216HW,2013-07-22 16:47:00,
2013-07-22 09:52:00,74.3,60.5,29.90,West,270,1.6,2.5,62,0.00,,,0.00,WUHU216HW,2013-07-22 16:52:00,
2013-07-22 09:57:00,74.9,60.1,29.90,ESE,113,1.1,2.2,60,0.00,,,0.00,WUHU216HW,2013-07-22 16:57:00,
2013-07-22 10:02:00,74.9,60.1,29.90,WSW,248,1.3,2.2,60,0.00,,,0.00,WUHU216HW,2013-07-22 17:02:00,
2013-07-22 10:07:00,74.7,59.9,29.90,West,270,4.7,4.7,60,0.00,,,0.00,WUHU216HW,2013-07-22 17:07:00,
2013-07-22 10:12:00,74.5,59.2,29.90,WNW,293,1.3,4.7,59,0.00,,,0.00,WUHU216HW,2013-07-22 17:12:00,
2013-07-22 10:17:00,74.9,60.1,29.90,West,270,1.1,3.4,60,0.00,,,0.00,WUHU216HW,2013-07-22 17:17:00,
2013-07-22 10:22:00,75.6,60.9,29.90,WNW,293,2.9,2.9,60,0.00,,,0.00,WUHU216HW,2013-07-22 17:22:00,
2013-07-22 10:27:00,76.0,60.7,29.90,SW,225,0.0,3.1,59,0.00,,,0.00,WUHU216HW,2013-07-22 17:27:00,
2013-07-22 10:32:00,76.3,60.5,29.90,North,0,1.6,3.1,58,0.00,,,0.00,WUHU216HW,2013-07-22 17:32:00,
2013-07-22 10:37:00,76.5,60.1,29.90,West,270,1.1,2.7,57,0.00,,,0.00,WUHU216HW,2013-07-22 17:37:00,
2013-07-22 10:42:00,76.9,60.4,29.90,West,270,3.1,4.0,57,0.00,,,0.00,WUHU216HW,2013-07-22 17:42:00,
2013-07-22 10:47:00,77.2,60.3,29.90,West,270,3.1,4.7,56,0.00,,,0.00,WUHU216HW,2013-07-22 17:47:00,
2013-07-22 10:52:00,77.8,60.3,29.90,WNW,293,2.5,4.7,55,0.00,,,0.00,WUHU216HW,2013-07-22 17:52:00,
2013-07-22 10:57:00,78.5,60.4,29.90,WNW,293,4.0,4.0,54,0.00,,,0.00,WUHU216HW,2013-07-22 17:57:00,
2013-07-22 11:02:00,79.0,60.4,29.90,North,0,2.2,4.0,53,0.00,,,0.00,WUHU216HW,2013-07-22 18:02:00,
2013-07-22 11:07:00,79.6,60.9,29.90,WNW,293,3.4,4.0,53,0.00,,,0.00,WUHU216HW,2013-07-22 18:07:00,
2013-07-22 11:13:00,80.5,61.2,29.90,WNW,293,0.7,3.6,52,0.00,,,0.00,WUHU216HW,2013-07-22 18:13:00,
2013-07-22 11:18:00,80.8,60.5,29.90,WNW,293,3.8,3.8,50,0.00,,,0.00,WUHU216HW,2013-07-22 18:18:00,
2013-07-22 11:23:00,80.6,59.7,29.90,WSW,248,3.4,4.0,49,0.00,,,0.00,WUHU216HW,2013-07-22 18:23:00,
2013-07-22 11:28:00,80.5,60.1,29.90,ENE,68,3.6,4.0,50,0.00,,,0.00,WUHU216HW,2013-07-22 18:28:00,
2013-07-22 11:33:00,80.3,59.9,29.89,WNW,293,0.9,3.6,50,0.00,,,0.00,WUHU216HW,2013-07-22 18:33:00,
2013-07-22 11:38:00,81.0,61.1,29.89,North,0,0.7,3.6,51,0.00,,,0.00,WUHU216HW,2013-07-22 18:38:00,
2013-07-22 11:43:00,81.7,61.3,29.89,SW,225,0.9,3.6,50,0.00,,,0.00,WUHU216HW,2013-07-22 18:43:00,
2013-07-22 11:48:00,82.3,61.1,29.89,NW,315,1.3,1.3,49,0.00,,,0.00,WUHU216HW,2013-07-22 18:48:00,
2013-07-22 11:54:00,82.8,61.0,29.89,NNE,23,1.6,2.2,48,0.00,,,0.00,WUHU216HW,2013-07-22 18:54:00,
2013-07-22 11:59:00,83.2,60.1,29.89,North,0,2.5,2.5,46,0.00,,,0.00,WUHU216HW,2013-07-22 18:59:00,
2013-07-22 12:04:00,83.3,60.3,29.89,North,0,1.1,4.3,46,0.00,,,0.00,WUHU216HW,2013-07-22 19:04:00,
2013-07-22 12:09:00,83.5,60.5,29.89,WSW,248,0.9,4.3,46,0.00,,,0.00,WUHU216HW,2013-07-22 19:09:00,
2013-07-22 12:14:00,83.5,59.9,29.89,NE,45,3.8,3.8,45,0.00,,,0.00,WUHU216HW,2013-07-22 19:14:00,
2013-07-22 12:20:00,83.9,61.5,29.89,North,0,0.2,3.8,47,0.00,,,0.00,WUHU216HW,2013-07-22 19:20:00,
2013-07-22 12:25:00,84.1,61.0,29.89,NE,45,2.7,2.7,46,0.00,,,0.00,WUHU216HW,2013-07-22 19:25:00,
2013-07-22 12:30:00,84.6,60.3,29.89,NW,315,2.9,2.9,44,0.00,,,0.00,WUHU216HW,2013-07-22 19:30:00,
2013-07-22 12:35:00,84.6,59.7,29.89,North,0,1.1,2.9,43,0.00,,,0.00,WUHU216HW,2013-07-22 19:35:00,
2013-07-22 12:40:00,84.8,60.4,29.89,ENE,68,1.8,3.1,44,0.00,,,0.00,WUHU216HW,2013-07-22 19:40:00,
2013-07-22 12:45:00,85.3,59.7,29.89,WNW,293,0.9,3.1,42,0.00,,,0.00,WUHU216HW,2013-07-22 19:45:00,
2013-07-22 12:50:00,85.9,60.1,29.89,West,270,3.8,3.8,42,0.00,,,0.00,WUHU216HW,2013-07-22 19:50:00,
2013-07-22 12:55:00,86.0,60.9,29.88,West,270,3.1,3.8,43,0.00,,,0.00,WUHU216HW,2013-07-22 19:55:00,
2013-07-22 13:00:00,86.4,58.6,29.89,WNW,293,2.9,4.7,39,0.00,,,0.00,WUHU216HW,2013-07-22 20:00:00,
2013-07-22 13:05:00,86.6,60.1,29.88,East,90,0.7,6.0,41,0.00,,,0.00,WUHU216HW,2013-07-22 20:05:00,
2013-07-22 13:10:00,87.1,60.0,29.88,West,270,3.6,6.0,40,0.00,,,0.00,WUHU216HW,2013-07-22 20:10:00,
2013-07-22 13:15:00,87.7,58.9,29.88,South,180,6.0,6.0,38,0.00,,,0.00,WUHU216HW,2013-07-22 20:15:00,
2013-07-22 13:16:00,87.7,58.9,29.89,WSW,248,2.0,6.0,38,0.00,,,0.00,WUHU216HW,2013-07-22 20:16:00,
2013-07-22 13:17:00,87.7,58.9,29.89,WSW,248,2.0,6.0,38,0.00,,,0.00,WUHU216HW,2013-07-22 20:17:00,
2013-07-22 13:22:00,88.0,57.6,29.88,West,270,4.0,6.0,36,0.00,,,0.00,WUHU216HW,2013-07-22 20:22:00,
2013-07-22 13:27:00,88.2,57.7,29.88,SW,225,5.8,6.0,36,0.00,,,0.00,WUHU216HW,2013-07-22 20:27:00,
2013-07-22 13:32:00,87.8,55.8,29.88,WNW,293,4.9,6.3,34,0.00,,,0.00,WUHU216HW,2013-07-22 20:32:00,
2013-07-22 13:37:00,88.0,54.4,29.88,NW,315,1.3,6.3,32,0.00,,,0.00,WUHU216HW,2013-07-22 20:37:00,
2013-07-22 13:42:00,87.8,54.2,29.88,WSW,248,5.1,6.0,32,0.00,,,0.00,WUHU216HW,2013-07-22 20:42:00,
2013-07-22 13:43:00,87.8,55.0,29.88,West,270,6.0,6.0,33,0.00,,,0.00,WUHU216HW,2013-07-22 20:43:00,
2013-07-22 13:48:00,87.5,52.3,29.88,SSW,203,6.9,6.9,30,0.00,,,0.00,WUHU216HW,2013-07-22 20:48:00,
2013-07-22 13:53:00,86.9,52.7,29.88,West,270,5.6,6.9,31,0.00,,,0.00,WUHU216HW,2013-07-22 20:53:00,
2013-07-22 13:58:00,86.9,52.7,29.88,SSW,203,1.3,6.9,31,0.00,,,0.00,WUHU216HW,2013-07-22 20:58:00,
2013-07-22 14:03:00,86.9,50.8,29.88,SSW,203,3.6,6.9,29,0.00,,,0.00,WUHU216HW,2013-07-22 21:03:00,
2013-07-22 14:08:00,86.9,50.8,29.88,SSW,203,3.6,4.7,29,0.00,,,0.00,WUHU216HW,2013-07-22 21:08:00,
2013-07-22 14:13:00,86.9,50.8,29.88,SSW,203,3.6,3.6,29,0.00,,,0.00,WUHU216HW,2013-07-22 21:13:00,
2013-07-22 14:18:00,87.1,53.6,29.88,WSW,248,2.7,3.6,32,0.00,,,0.00,WUHU216HW,2013-07-22 21:18:00,
2013-07-22 14:23:00,87.7,54.8,29.88,WSW,248,2.5,6.0,33,0.00,,,0.00,WUHU216HW,2013-07-22 21:23:00,
2013-07-22 14:28:00,87.8,55.8,29.89,WNW,293,2.5,6.0,34,0.00,,,0.00,WUHU216HW,2013-07-22 21:28:00,
2013-07-22 14:33:00,87.8,53.4,29.89,South,180,4.7,8.5,31,0.00,,,0.00,WUHU216HW,2013-07-22 21:33:00,
2013-07-22 14:38:00,87.1,53.6,29.88,West,270,5.4,8.5,32,0.00,,,0.00,WUHU216HW,2013-07-22 21:38:00,
2013-07-22 14:43:00,86.2,53.6,29.89,NW,315,5.4,7.6,33,0.00,,,0.00,WUHU216HW,2013-07-22 21:43:00,
2013-07-22 14:48:00,86.0,54.3,29.88,SSW,203,2.5,6.5,34,0.00,,,0.00,WUHU216HW,2013-07-22 21:48:00,
2013-07-22 14:53:00,86.0,52.8,29.88,SSW,203,2.9,6.0,32,0.00,,,0.00,WUHU216HW,2013-07-22 21:53:00,
2013-07-22 14:58:00,85.9,53.4,29.88,SSE,158,5.6,6.3,33,0.00,,,0.00,WUHU216HW,2013-07-22 21:58:00,
2013-07-22 15:03:00,85.3,54.5,29.88,WSW,248,1.3,6.3,35,0.00,,,0.00,WUHU216HW,2013-07-22 22:03:00,
2013-07-22 15:08:00,85.1,56.6,29.88,WSW,248,2.9,5.1,38,0.00,,,0.00,WUHU216HW,2013-07-22 22:08:00,
2013-07-22 15:13:00,84.6,57.0,29.88,West,270,6.3,6.3,39,0.00,,,0.00,WUHU216HW,2013-07-22 22:13:00,
2013-07-22 15:18:00,84.4,58.2,29.88,NW,315,3.6,6.3,41,0.00,,,0.00,WUHU216HW,2013-07-22 22:18:00,
2013-07-22 15:23:00,83.9,58.3,29.87,WNW,293,4.7,4.7,42,0.00,,,0.00,WUHU216HW,2013-07-22 22:23:00,
2013-07-22 15:28:00,83.0,58.2,29.87,WNW,293,3.8,6.9,43,0.00,,,0.00,WUHU216HW,2013-07-22 22:28:00,
2013-07-22 15:33:00,82.3,58.1,29.87,NW,315,4.0,6.9,44,0.00,,,0.00,WUHU216HW,2013-07-22 22:33:00,
2013-07-22 15:38:00,81.5,58.1,29.87,WNW,293,4.0,6.3,45,0.00,,,0.00,WUHU216HW,2013-07-22 22:38:00,
2013-07-22 15:43:00,81.0,58.1,29.88,NW,315,4.0,6.0,46,0.00,,,0.00,WUHU216HW,2013-07-22 22:43:00,
2013-07-22 15:48:00,80.6,57.9,29.88,NW,315,1.3,6.0,46,0.00,,,0.00,WUHU216HW,2013-07-22 22:48:00,
2013-07-22 15:53:00,80.5,58.3,29.89,North,0,1.3,5.4,47,0.00,,,0.00,WUHU216HW,2013-07-22 22:53:00,
2013-07-22 15:58:00,80.6,58.5,29.89,SW,225,4.3,4.3,47,0.00,,,0.00,WUHU216HW,2013-07-22 22:58:00,
2013-07-22 16:03:00,80.5,57.1,29.88,SSW,203,3.4,6.3,45,0.00,,,0.00,WUHU216HW,2013-07-22 23:03:00,
2013-07-22 16:08:00,80.3,57.5,29.89,South,180,5.1,6.3,46,0.00,,,0.00,WUHU216HW,2013-07-22 23:08:00,
2013-07-22 16:13:00,79.6,58.2,29.89,SW,225,4.7,7.4,48,0.00,,,0.00,WUHU216HW,2013-07-22 23:13:00,
2013-07-22 16:18:00,79.4,58.0,29.88,West,270,4.9,7.4,48,0.00,,,0.00,WUHU216HW,2013-07-22 23:18:00,
2013-07-22 16:23:00,79.2,58.4,29.89,SW,225,5.4,5.4,49,0.00,,,0.00,WUHU216HW,2013-07-22 23:23:00,
2013-07-22 16:28:00,79.0,58.9,29.89,WNW,293,3.4,5.4,50,0.00,,,0.00,WUHU216HW,2013-07-22 23:28:00,
2013-07-22 16:33:00,78.8,58.7,29.89,WSW,248,4.3,5.4,50,0.00,,,0.00,WUHU216HW,2013-07-22 23:33:00,
2013-07-22 16:38:00,78.8,58.7,29.88,SW,225,2.0,4.7,50,0.00,,,0.00,WUHU216HW,2013-07-22 23:38:00,
2013-07-22 16:43:00,78.8,59.2,29.88,WNW,293,1.1,3.8,51,0.00,,,0.00,WUHU216HW,2013-07-22 23:43:00,
2013-07-22 16:48:00,79.0,59.4,29.88,WSW,248,3.1,3.1,51,0.00,,,0.00,WUHU216HW,2013-07-22 23:48:00,
2013-07-22 16:53:00,79.2,59.5,29.88,SW,225,3.4,3.4,51,0.00,,,0.00,WUHU216HW,2013-07-22 23:53:00,
2013-07-22 16:58:00,79.0,59.4,29.88,WSW,248,1.8,3.6,51,0.00,,,0.00,WUHU216HW,2013-07-22 23:58:00,
2013-07-22 17:03:00,79.0,59.4,29.88,NW,315,4.0,4.0,51,0.00,,,0.00,WUHU216HW,2013-07-23 00:03:00,
2013-07-22 17:08:00,78.8,58.7,29.89,WNW,293,1.8,4.0,50,0.00,,,0.00,WUHU216HW,2013-07-23 00:08:00,
2013-07-22 17:13:00,78.7,59.1,29.88,West,270,4.3,4.3,51,0.00,,,0.00,WUHU216HW,2013-07-23 00:13:00,
2013-07-22 17:18:00,78.5,58.9,29.88,NNW,338,2.2,4.3,51,0.00,,,0.00,WUHU216HW,2013-07-23 00:18:00,
2013-07-22 17:23:00,78.1,58.6,29.88,WNW,293,0.7,4.0,51,0.00,,,0.00,WUHU216HW,2013-07-23 00:23:00,
2013-07-22 17:28:00,77.9,58.9,29.88,NW,315,2.7,3.8,52,0.00,,,0.00,WUHU216HW,2013-07-23 00:28:00,
2013-07-22 17:33:00,77.8,58.2,29.89,West,270,3.1,7.4,51,0.00,,,0.00,WUHU216HW,2013-07-23 00:33:00,
2013-07-22 17:38:00,77.2,58.2,29.89,WSW,248,4.0,7.4,52,0.00,,,0.00,WUHU216HW,2013-07-23 00:38:00,
2013-07-22 17:43:00,77.0,58.1,29.89,WNW,293,4.5,7.2,52,0.00,,,0.00,WUHU216HW,2013-07-23 00:43:00,
2013-07-22 17:48:00,77.0,58.1,29.89,West,270,4.7,4.7,52,0.00,,,0.00,WUHU216HW,2013-07-23 00:48:00,
2013-07-22 17:53:00,77.0,58.1,29.90,NW,315,1.8,4.7,52,0.00,,,0.00,WUHU216HW,2013-07-23 00:53:00,
2013-07-22 17:58:00,76.9,57.9,29.89,NW,315,1.8,3.6,52,0.00,,,0.00,WUHU216HW,2013-07-23 00:58:00,
2013-07-22 18:03:00,76.9,57.9,29.90,West,270,2.0,2.9,52,0.00,,,0.00,WUHU216HW,2013-07-23 01:03:00,
2013-07-22 18:08:00,76.7,57.8,29.90,WNW,293,2.5,2.9,52,0.00,,,0.00,WUHU216HW,2013-07-23 01:08:00,
2013-07-22 18:13:00,76.3,57.4,29.90,West,270,2.5,4.7,52,0.00,,,0.00,WUHU216HW,2013-07-23 01:13:00,
2013-07-22 18:18:00,76.3,57.4,29.90,WSW,248,1.1,4.7,52,0.00,,,0.00,WUHU216HW,2013-07-23 01:18:00,
2013-07-22 18:23:00,76.1,57.2,29.91,NNW,338,1.3,3.8,52,0.00,,,0.00,WUHU216HW,2013-07-23 01:23:00,
2013-07-22 18:28:00,76.1,57.2,29.91,WNW,293,1.1,4.7,52,0.00,,,0.00,WUHU216HW,2013-07-23 01:28:00,
2013-07-22 18:33:00,75.8,57.0,29.90,WNW,293,0.7,4.7,52,0.00,,,0.00,WUHU216HW,2013-07-23 01:33:00,
2013-07-22 18:38:00,75.2,56.4,29.90,WNW,293,3.4,6.3,52,0.00,,,0.00,WUHU216HW,2013-07-23 01:38:00,
2013-07-22 18:43:00,74.7,56.4,29.90,WNW,293,1.8,6.3,53,0.00,,,0.00,WUHU216HW,2013-07-23 01:43:00,
2013-07-22 18:48:00,74.5,56.3,29.90,SSE,158,0.9,5.4,53,0.00,,,0.00,WUHU216HW,2013-07-23 01:48:00,
2013-07-22 18:53:00,74.5,56.7,29.90,West,270,1.6,1.6,54,0.00,,,0.00,WUHU216HW,2013-07-23 01:53:00,
2013-07-22 18:58:00,74.3,56.5,29.90,NW,315,1.3,3.1,54,0.00,,,0.00,WUHU216HW,2013-07-23 01:58:00,
2013-07-22 19:03:00,74.2,56.3,29.90,NW,315,0.9,3.1,54,0.00,,,0.00,WUHU216HW,2013-07-23 02:03:00,
2013-07-22 19:08:00,74.2,56.3,29.90,North,0,1.1,1.3,54,0.00,,,0.00,WUHU216HW,2013-07-23 02:08:00,
2013-07-22 19:13:00,73.8,56.5,29.90,North,0,2.5,2.5,55,0.00,,,0.00,WUHU216HW,2013-07-23 02:13:00,
2013-07-22 19:18:00,73.6,56.3,29.90,West,270,3.1,3.4,55,0.00,,,0.00,WUHU216HW,2013-07-23 02:18:00,
2013-07-22 19:23:00,73.4,56.7,29.90,North,0,2.7,4.3,56,0.00,,,0.00,WUHU216HW,2013-07-23 02:23:00,
2013-07-22 19:28:00,73.1,56.3,29.90,NE,45,2.0,4.7,56,0.00,,,0.00,WUHU216HW,2013-07-23 02:28:00,
2013-07-22 19:33:00,72.7,56.5,29.91,North,0,1.8,4.7,57,0.00,,,0.00,WUHU216HW,2013-07-23 02:33:00,
2013-07-22 19:38:00,72.5,56.3,29.90,West,270,2.0,2.5,57,0.00,,,0.00,WUHU216HW,2013-07-23 02:38:00,
2013-07-22 19:43:00,72.4,56.2,29.90,NNW,338,1.6,2.5,57,0.00,,,0.00,WUHU216HW,2013-07-23 02:43:00,
2013-07-22 19:48:00,72.2,56.5,29.90,NW,315,1.1,5.8,58,0.00,,,0.00,WUHU216HW,2013-07-23 02:48:00,
2013-07-22 19:53:00,71.8,56.3,29.89,North,0,0.0,5.8,58,0.00,,,0.00,WUHU216HW,2013-07-23 02:53:00,
2013-07-22 19:58:00,71.6,56.1,29.89,NNW,338,1.3,2.7,58,0.00,,,0.00,WUHU216HW,2013-07-23 02:58:00,
2013-07-22 20:03:00,71.5,55.9,29.89,NW,315,1.1,3.4,58,0.00,,,0.00,WUHU216HW,2013-07-23 03:03:00,
2013-07-22 20:08:00,71.5,56.4,29.89,NW,315,1.8,3.4,59,0.00,,,0.00,WUHU216HW,2013-07-23 03:08:00,
2013-07-22 20:13:00,70.9,55.9,29.89,WNW,293,0.0,2.9,59,0.00,,,0.00,WUHU216HW,2013-07-23 03:13:00,
2013-07-22 20:18:00,70.6,55.6,29.90,NE,45,2.9,2.9,59,0.00,,,0.00,WUHU216HW,2013-07-23 03:18:00,
2013-07-22 20:23:00,70.4,55.9,29.90,ENE,68,1.1,3.4,60,0.00,,,0.00,WUHU216HW,2013-07-23 03:23:00,
2013-07-22 20:28:00,70.0,55.6,29.91,North,0,1.6,3.4,60,0.00,,,0.00,WUHU216HW,2013-07-23 03:28:00,
2013-07-22 20:33:00,69.8,55.4,29.91,NE,45,0.7,3.1,60,0.00,,,0.00,WUHU216HW,2013-07-23 03:33:00,
2013-07-22 20:38:00,69.8,55.9,29.91,South,180,0.2,1.6,61,0.00,,,0.00,WUHU216HW,2013-07-23 03:38:00,
2013-07-22 20:43:00,69.5,55.5,29.91,NE,45,1.3,1.8,61,0.00,,,0.00,WUHU216HW,2013-07-23 03:43:00,
2013-07-22 20:48:00,69.5,55.5,29.91,NNE,23,0.0,1.8,61,0.00,,,0.00,WUHU216HW,2013-07-23 03:48:00,
2013-07-22 20:53:00,69.5,55.5,29.91,NNE,23,0.0,1.8,61,0.00,,,0.00,WUHU216HW,2013-07-23 03:53:00,
2013-07-22 20:58:00,69.3,55.4,29.91,WNW,293,0.7,0.9,61,0.00,,,0.00,WUHU216HW,2013-07-23 03:58:00,
2013-07-22 21:01:00,69.3,55.4,29.91,WNW,293,0.4,0.9,61,0.00,,,0.00,WUHU216HW,2013-07-23 04:01:00,
2013-07-22 21:06:00,69.1,55.2,29.91,North,0,0.7,0.9,61,0.00,,,0.00,WUHU216HW,2013-07-23 04:06:00,
2013-07-22 21:11:00,69.3,55.7,29.92,North,0,2.0,2.2,62,0.00,,,0.00,WUHU216HW,2013-07-23 04:11:00,
2013-07-22 21:16:00,69.1,55.5,29.92,WNW,293,0.2,2.2,62,0.00,,,0.00,WUHU216HW,2013-07-23 04:16:00,
2013-07-22 21:21:00,69.1,55.5,29.92,WNW,293,0.7,0.7,62,0.00,,,0.00,WUHU216HW,2013-07-23 04:21:00,
2013-07-22 21:26:00,69.1,56.0,29.92,NNE,23,2.2,2.2,63,0.00,,,0.00,WUHU216HW,2013-07-23 04:26:00,
2013-07-22 21:31:00,69.1,55.5,29.92,North,0,2.5,2.5,62,0.00,,,0.00,WUHU216HW,2013-07-23 04:31:00,
2013-07-22 21:36:00,68.9,55.4,29.92,North,0,0.4,2.5,62,0.00,,,0.00,WUHU216HW,2013-07-23 04:36:00,
2013-07-22 21:41:00,68.8,55.2,29.92,NW,315,0.4,1.8,62,0.00,,,0.00,WUHU216HW,2013-07-23 04:41:00,
2013-07-22 21:46:00,68.6,55.0,29.92,NW,315,0.4,1.8,62,0.00,,,0.00,WUHU216HW,2013-07-23 04:46:00,
2013-07-22 21:51:00,68.4,55.3,29.92,NNW,338,0.0,1.3,63,0.00,,,0.00,WUHU216HW,2013-07-23 04:51:00,
2013-07-22 21:56:00,68.2,55.1,29.92,NNE,23,1.1,1.6,63,0.00,,,0.00,WUHU216HW,2013-07-23 04:56:00,
2013-07-22 22:01:00,68.0,54.9,29.92,NNE,23,1.3,1.6,63,0.00,,,0.00,WUHU216HW,2013-07-23 05:01:00,
2013-07-22 22:06:00,68.0,54.9,29.92,West,270,0.4,1.3,63,0.00,,,0.00,WUHU216HW,2013-07-23 05:06:00,
2013-07-22 22:11:00,68.0,54.9,29.92,North,0,0.4,0.7,63,0.00,,,0.00,WUHU216HW,2013-07-23 05:11:00,
2013-07-22 22:16:00,67.9,54.8,29.91,North,0,0.4,0.4,63,0.00,,,0.00,WUHU216HW,2013-07-23 05:16:00,
2013-07-22 22:21:00,68.0,55.4,29.91,NNE,23,1.6,1.8,64,0.00,,,0.00,WUHU216HW,2013-07-23 05:21:00,
2013-07-22 22:26:00,68.0,54.9,29.91,North,0,0.0,3.1,63,0.00,,,0.00,WUHU216HW,2013-07-23 05:26:00,
2013-07-22 22:31:00,68.0,54.9,29.91,NW,315,1.1,3.1,63,0.00,,,0.00,WUHU216HW,2013-07-23 05:31:00,
2013-07-22 22:36:00,68.0,54.9,29.91,WNW,293,1.6,2.2,63,0.00,,,0.00,WUHU216HW,2013-07-23 05:36:00,
2013-07-22 22:41:00,68.2,54.7,29.91,WSW,248,2.5,5.4,62,0.00,,,0.00,WUHU216HW,2013-07-23 05:41:00,
2013-07-22 22:46:00,68.6,55.0,29.91,West,270,2.0,5.4,62,0.00,,,0.00,WUHU216HW,2013-07-23 05:46:00,
2013-07-22 22:51:00,68.8,54.8,29.91,WNW,293,2.9,2.9,61,0.00,,,0.00,WUHU216HW,2013-07-23 05:51:00,
2013-07-22 22:56:00,68.8,54.8,29.91,WNW,293,0.9,2.9,61,0.00,,,0.00,WUHU216HW,2013-07-23 05:56:00,
2013-07-22 23:01:00,68.9,55.0,29.91,WNW,293,0.4,1.8,61,0.00,,,0.00,WUHU216HW,2013-07-23 06:01:00,
2013-07-22 23:06:00,68.9,54.5,29.91,NW,315,0.2,1.8,60,0.00,,,0.00,WUHU216HW,2013-07-23 06:06:00,
2013-07-22 23:11:00,69.1,54.7,29.91,NNE,23,0.9,1.3,60,0.00,,,0.00,WUHU216HW,2013-07-23 06:11:00,
2013-07-22 23:16:00,69.1,54.7,29.90,WNW,293,0.4,3.1,60,0.00,,,0.00,WUHU216HW,2013-07-23 06:16:00,
2013-07-22 23:21:00,69.1,54.7,29.90,WNW,293,0.9,3.1,60,0.00,,,0.00,WUHU216HW,2013-07-23 06:21:00,
2013-07-22 23:26:00,68.9,54.5,29.90,WNW,293,2.2,2.2,60,0.00,,,0.00,WUHU216HW,2013-07-23 06:26:00,
2013-07-22 23:31:00,68.8,54.4,29.90,North,0,0.4,2.2,60,0.00,,,0.00,WUHU216HW,2013-07-23 06:31:00,
2013-07-22 23:36:00,68.6,54.6,29.90,NW,315,4.0,4.0,61,0.00,,,0.00,WUHU216HW,2013-07-23 06:36:00,
2013-07-22 23:41:00,68.4,54.5,29.90,West,270,2.0,4.0,61,0.00,,,0.00,WUHU216HW,2013-07-23 06:41:00,
2013-07-22 23:46:00,68.0,54.1,29.90,NW,315,0.4,2.0,61,0.00,,,0.00,WUHU216HW,2013-07-23 06:46:00,
2013-07-22 23:51:00,67.9,54.4,29.92,WNW,293,1.8,3.4,62,0.00,,,0.00,WUHU216HW,2013-07-23 06:51:00,
2013-07-22 23:56:00,67.7,54.2,29.92,NNW,338,0.4,3.4,62,0.00,,,0.00,WUHU216HW,2013-07-23 06:56:00,